Wind_Speed
7 7 7 8 8 9 11 11 14 14 16 16 15 13 12 12 13 12 12 11 10 10 8 8 8 8 7 7 7 6 5 8 7 8 8 9 7 7 7 5 5 6 7
12 14 17 17 14 13 13 14 15 14 13 12 11 10 11 11 11 11 10 8 9 8 6 4 3 2 4 5 5 6 6 3 3 2 5 5 3 4 4 5 6 5 6
15 18 16 14 13 12 12 13 11 11 11 9 8 8 8 8 8 7 7 9 10 12 10 7 7 5 6 9 8 4 6 8 7 5 6 1 4 3 4 7 10 12 12
12 15 16 17 17 15 11 10 9 9 7 6 4 4 5 6 5 4 5 7 11 14 14 7 9 10 11 13 14 15 9 3 3 3 4 5 8 10 12 13 14 12 10
13 13 12 12 13 12 11 9 7 6 5 4 3 3 4 7 10 6 6 9 12 13 13 8 8 9 10 10 12 15 14 15 13 11 11 12 16 16 17 17 16 17 13
13 12 9 9 11 11 9 9 6 4 2 2 6 7 9 14 15 14 10 10 15 16 14 10 6 8 9 8 10 11 12 16 18 20 16 15 16 15 16 19 19 24 26
11 11 9 10 12 11 9 3 2 4 6 10 12 13 18 18 14 14 13 14 16 18 19 15 8 7 7 7 8 9 10 12 12 13 15 13 13 15 16 18 17 17 21
9 11 11 12 12 10 4 3 5 6 8 10 10 12 13 12 8 7 8 9 12 18 17 18 18 16 13 9 10 11 11 11 9 11 14 14 13 13 14 17 17 16 15
12 14 15 12 10 7 5 6 7 8 9 10 10 10 10 9 9 8 6 7 6 13 13 13 15 15 16 14 8 8 9 8 9 11 13 13 14 15 12 16 15 18 19
15 14 13 9 10 7 5 5 6 8 9 10 12 14 12 10 10 12 7 2 4 4 8 9 11 13 12 10 9 9 9 9 8 9 11 15 13 12 15 17 16 14 17
15 13 13 12 5 3 5 3 7 8 9 10 10 8 6 5 5 7 8 3 2 2 5 6 9 10 9 8 10 7 9 9 9 9 10 11 12 15 15 16 16 14 14
17 15 13 9 7 7 7 9 6 4 5 3 3 4 1 5 1 2 4 6 5 3 2 4 4 9 5 8 10 9 9 9 10 10 12 14 15 14 15 14 17 14 14
17 16 13 12 11 12 12 9 4 2 0 2 4 8 9 8 6 5 5 7 7 6 3 1 2 4 4 7 9 10 9 11 12 14 13 16 14 12 13 14 16 16 11
16 14 10 9 8 5 3 2 2 1 2 3 3 3 5 11 10 9 10 9 6 4 3 1 0 2 4 5 6 10 9 11 11 13 14 12 16 13 14 17 22 23 19
16 12 9 8 7 4 3 3 4 2 1 2 1 3 5 11 15 15 10 5 1 5 3 2 1 1 4 5 6 9 8 9 10 12 13 11 15 16 15 15 20 25 21
17 12 10 7 5 2 4 6 3 2 1 2 2 5 7 9 5 2 2 3 6 6 2 0 1 5 4 4 6 8 9 10 10 10 12 13 16 17 17 16 17 23 24
19 15 12 10 6 3 6 4 1 2 2 1 2 4 6 10 7 6 7 7 6 3 2 3 6 3 3 4 7 8 7 7 8 10 12 13 14 16 16 15 16 17 21
18 16 12 9 7 6 6 2 3 1 1 1 3 3 4 6 10 6 2 2 2 0 4 8 3 3 3 6 10 6 5 6 9 9 8 10 13 16 15 15 16 16 18
15 18 12 10 7 6 6 3 3 1 4 5 6 6 6 2 1 3 5 6 6 8 7 6 3 1 5 7 9 10 6 10 10 7 4 6 11 16 17 15 14 15 15
20 15 11 9 7 5 5 5 5 4 4 5 3 7 3 3 2 3 2 1 5 7 3 3 3 2 4 10 9 7 8 5 6 8 5 5 8 11 15 19 15 16 19
15 14 11 10 8 8 6 5 4 3 1 1 4 3 3 4 6 5 8 9 8 4 5 3 3 1 8 13 6 6 8 7 5 5 4 5 7 11 12 12 14 16 15
10 9 14 10 7 7 7 5 4 3 2 2 2 4 3 2 2 4 4 4 3 1 6 5 6 9 13 11 8 10 9 4 3 3 2 5 6 8 12 12 11 15 18
14 12 11 8 8 7 10 8 6 5 2 2 3 4 4 2 2 2 1 1 1 3 5 6 8 9 7 6 9 8 6 1 3 4 3 5 6 8 10 13 13 12 15
10 9 11 11 10 10 10 6 5 6 6 4 4 4 4 3 1 2 2 1 3 4 6 6 10 7 7 8 8 7 5 3 3 4 5 6 6 5 9 10 11 12 13
12 5 12 13 4 10 10 7 6 6 8 6 4 3 4 4 3 3 2 3 4 5 7 7 8 5 8 8 7 6 3 4 2 2 4 6 6 6 7 10 13 12 9
11 6 14 13 8 7 9 6 8 10 7 5 4 2 4 5 5 5 5 5 7 8 7 8 8 7 8 8 7 6 2 3 1 4 6 6 9 6 5 7 10 12 13
Wind_Direction
131 119 118 107 106 107 94 93 101 100 98 98 95 93 93 87 77 72 69 55 30 30 35 30 39 28 32 36 33 32 44 74 86 69 58 74 77 74 69 58 14 7 357
109 110 107 105 104 100 101 107 119 116 109 103 103 103 95 87 69 56 46 26 4 12 21 342 18 5 9 21 12 18 6 0 34 98 98 55 31 44 13 348 337 332 323
115 115 114 110 112 107 108 110 109 103 99 98 88 75 71 78 74 54 32 29 49 43 42 46 59 41 45 43 33 46 66 79 93 119 112 11 327 322 298 303 300 299 292
111 124 124 123 124 127 119 117 113 106 99 87 66 71 67 66 50 29 9 26 40 43 34 55 55 58 60 59 55 56 56 56 61 56 42 7 353 344 345 337 333 337 338
115 110 105 128 130 121 123 118 105 99 87 92 89 80 62 66 53 33 25 33 30 26 37 56 54 52 52 52 48 52 60 60 58 51 42 36 32 28 22 16 13 16 18
138 115 121 132 133 126 115 103 91 62 51 98 98 92 82 75 77 70 58 50 66 53 46 52 58 49 41 34 42 50 53 54 46 41 44 41 35 30 24 16 16 19 11
134 127 134 143 140 136 134 120 54 67 106 105 96 99 97 95 83 79 72 66 60 53 53 53 45 38 27 26 46 57 55 38 33 22 29 24 22 17 15 16 19 21 12
135 142 150 157 151 145 138 117 82 97 118 112 102 94 91 87 65 50 44 47 52 45 58 56 50 49 51 63 74 65 55 38 33 25 25 25 16 7 6 3 2 3 7
162 160 157 160 160 149 122 78 81 108 112 107 94 80 65 50 29 24 38 40 40 36 49 53 46 43 51 50 41 54 46 33 21 21 19 14 12 12 10 355 352 351 2
160 157 154 155 144 134 137 118 85 95 109 103 97 97 91 83 57 52 36 325 338 0 51 31 28 29 19 23 35 46 37 29 21 9 356 8 15 15 9 5 4 4 4
155 150 148 144 118 139 157 107 110 95 115 118 119 114 97 65 54 46 45 11 301 254 321 25 8 3 5 12 2 46 37 30 18 8 8 12 15 13 10 12 4 353 353
141 134 123 121 117 128 138 130 109 92 112 146 189 203 228 347 278 33 22 4 350 313 303 0 342 355 41 28 42 37 31 9 8 1 8 7 5 13 17 12 8 3 353
140 126 112 111 107 106 131 134 134 200 70 16 314 254 267 271 279 286 314 313 318 314 316 348 313 18 48 32 34 31 18 8 11 11 11 9 13 8 6 10 6 2 0
143 132 130 130 135 131 144 152 137 77 0 300 311 284 264 256 265 273 299 304 301 320 176 163 2 66 30 24 24 8 355 359 14 16 17 23 25 26 16 20 21 16 14
156 146 132 128 125 132 142 184 203 191 97 28 35 344 309 266 266 277 286 301 305 142 134 150 8 79 15 34 15 1 6 4 22 23 21 28 29 29 20 18 17 14 12
169 163 165 154 148 159 192 182 145 180 246 287 317 2 7 3 322 293 117 109 127 124 137 2 158 85 33 32 14 5 4 359 8 20 21 17 21 10 10 23 17 16 15
179 178 185 185 167 176 145 140 242 272 252 255 325 12 20 27 49 93 101 120 124 125 127 34 110 50 49 25 3 356 352 3 2 4 7 15 20 19 19 20 9 14 16
188 192 185 186 197 213 190 194 231 179 220 265 319 310 355 36 63 85 128 173 211 177 154 147 84 74 28 351 342 334 330 326 348 355 3 15 17 22 14 8 5 6 13
192 181 176 168 217 227 216 209 118 220 266 273 282 298 277 282 139 113 87 79 65 159 139 131 38 96 336 352 345 333 346 337 340 351 347 12 20 24 10 5 2 8 359
168 167 168 187 196 192 184 202 227 260 268 266 289 313 229 188 189 207 155 77 114 132 32 272 243 213 341 342 334 342 337 358 2 6 71 42 24 30 31 35 33 16 6
172 191 192 188 183 175 227 255 217 223 146 139 22 88 114 86 65 87 95 111 114 72 17 71 119 311 327 340 343 348 348 336 354 16 95 48 51 45 33 17 25 27 9
158 172 183 173 187 208 206 193 211 218 169 148 64 98 132 150 102 64 112 136 142 311 314 303 306 319 322 325 335 333 333 355 22 22 119 38 21 20 18 17 30 31 24
181 175 168 189 201 204 198 207 220 229 236 210 187 171 180 194 186 165 52 194 336 346 319 306 326 331 344 336 334 345 355 49 56 76 66 34 4 3 29 33 18 7 6
187 209 209 206 209 229 196 183 222 231 220 246 271 256 252 248 255 235 273 281 278 304 333 335 343 349 355 357 2 8 26 104 85 55 48 38 2 349 13 17 18 15 24
192 166 204 202 232 199 200 204 214 212 234 257 281 247 193 206 232 329 285 279 292 306 314 329 352 356 0 0 2 8 47 130 99 24 6 350 2 13 19 13 3 0 0
191 221 217 206 234 207 196 210 218 229 235 252 283 238 213 232 245 296 312 296 297 281 299 332 340 343 352 357 0 6 36 173 263 327 322 320 333 348 349 8 6 358 3
Height
1528 1528 1530 1532 1533 1532 1534 1533 1535 1535 1533 1533 1532 1532 1530 1530 1529 1529 1529 1528 1527 1527 1526 1525 1524 1523 1521 1520 1519 1518 1518 1517 1516 1516 1515 1514 1512 1512 1511 1510 1508 1507 1505
1529 1530 1531 1533 1535 1535 1536 1535 1536 1537 1537 1539 1535 1534 1533 1532 1532 1532 1531 1530 1529 1528 1527 1526 1525 1524 1522 1521 1520 1519 1517 1517 1517 1515 1515 1515 1513 1512 1511 1510 1509 1507 1506
1531 1533 1536 1535 1538 1539 1540 1539 1542 1540 1540 1541 1539 1537 1536 1535 1534 1533 1532 1531 1531 1530 1529 1528 1526 1525 1524 1523 1521 1520 1520 1519 1518 1516 1515 1516 1515 1513 1512 1510 1508 1506 1505
1535 1536 1536 1537 1539 1540 1541 1544 1545 1544 1543 1543 1541 1538 1537 1537 1537 1536 1534 1534 1534 1533 1532 1530 1529 1527 1526 1525 1524 1522 1521 1520 1519 1518 1517 1516 1514 1512 1509 1507 1505 1503 1501
1540 1539 1539 1539 1540 1540 1544 1548 1547 1546 1546 1545 1542 1540 1539 1538 1540 1539 1536 1537 1537 1536 1534 1532 1531 1530 1529 1528 1527 1525 1524 1522 1521 1519 1517 1516 1513 1511 1508 1507 1505 1502 1500
1542 1540 1540 1541 1541 1544 1548 1548 1549 1547 1545 1545 1543 1542 1540 1542 1542 1541 1540 1540 1539 1538 1536 1534 1533 1532 1531 1530 1529 1528 1526 1525 1523 1521 1519 1517 1515 1514 1511 1508 1504 1501 1498
1541 1539 1542 1544 1544 1546 1548 1550 1549 1548 1548 1547 1546 1545 1544 1544 1546 1545 1545 1545 1543 1542 1539 1537 1536 1534 1533 1532 1531 1529 1529 1527 1526 1524 1521 1519 1516 1514 1512 1509 1506 1504 1501
1540 1541 1545 1546 1546 1548 1550 1550 1550 1549 1549 1548 1548 1548 1547 1548 1549 1548 1548 1547 1546 1544 1542 1541 1540 1538 1536 1534 1533 1532 1531 1530 1527 1525 1523 1520 1518 1515 1512 1510 1507 1505 1503
1542 1543 1545 1547 1548 1550 1551 1550 1550 1551 1550 1550 1550 1550 1550 1550 1551 1550 1549 1549 1548 1547 1545 1544 1543 1542 1539 1537 1535 1534 1533 1531 1529 1527 1524 1521 1518 1515 1512 1510 1506 1502 1499
1543 1545 1547 1549 1550 1551 1552 1552 1552 1552 1552 1552 1552 1553 1553 1553 1552 1551 1550 1549 1549 1548 1547 1546 1545 1543 1542 1540 1537 1535 1534 1532 1530 1528 1525 1522 1519 1516 1513 1508 1505 1501 1498
1545 1547 1548 1550 1552 1552 1553 1553 1553 1553 1554 1555 1555 1555 1555 1554 1553 1552 1551 1549 1548 1547 1548 1546 1545 1544 1542 1541 1538 1536 1535 1532 1530 1527 1525 1522 1519 1516 1512 1509 1505 1502 1499
1546 1548 1550 1552 1552 1552 1552 1553 1554 1555 1556 1556 1556 1555 1555 1555 1554 1553 1551 1550 1548 1548 1547 1546 1545 1544 1542 1541 1539 1537 1535 1533 1530 1527 1525 1521 1518 1515 1512 1509 1506 1503 1500
1547 1549 1550 1551 1552 1552 1554 1555 1555 1555 1556 1556 1555 1554 1554 1553 1553 1552 1551 1549 1548 1547 1546 1545 1545 1544 1543 1542 1540 1538 1536 1533 1530 1527 1524 1522 1518 1516 1514 1510 1507 1503 1499
1547 1548 1550 1551 1553 1554 1555 1556 1556 1556 1555 1555 1554 1553 1553 1552 1551 1550 1548 1547 1546 1545 1545 1545 1545 1544 1543 1542 1540 1538 1536 1534 1531 1528 1526 1523 1520 1516 1514 1510 1506 1502 1499
1546 1548 1550 1552 1554 1555 1555 1556 1556 1556 1555 1554 1553 1553 1552 1550 1549 1547 1546 1545 1545 1545 1546 1546 1545 1544 1542 1542 1540 1538 1536 1534 1531 1529 1526 1524 1521 1517 1514 1511 1508 1504 1499
1545 1548 1550 1552 1554 1555 1555 1555 1555 1555 1555 1554 1554 1553 1551 1548 1545 1544 1544 1545 1545 1546 1546 1546 1545 1544 1543 1542 1540 1539 1537 1534 1532 1529 1527 1524 1521 1517 1514 1512 1509 1505 1500
1545 1547 1550 1552 1553 1554 1555 1555 1555 1555 1555 1554 1554 1553 1551 1549 1546 1545 1546 1546 1546 1546 1546 1545 1545 1544 1543 1542 1540 1538 1536 1534 1531 1529 1527 1524 1521 1518 1515 1512 1509 1506 1503
1544 1546 1548 1550 1552 1553 1554 1554 1554 1554 1554 1553 1553 1552 1551 1550 1548 1547 1547 1547 1546 1546 1545 1546 1545 1544 1543 1542 1539 1537 1536 1533 1531 1529 1527 1524 1522 1519 1515 1512 1509 1506 1504
1542 1545 1547 1549 1551 1552 1552 1553 1554 1554 1553 1552 1552 1551 1550 1549 1549 1548 1547 1547 1545 1545 1546 1546 1545 1544 1542 1540 1538 1536 1534 1532 1530 1527 1526 1525 1522 1519 1516 1513 1510 1507 1504
1541 1544 1546 1548 1550 1550 1552 1552 1552 1552 1551 1551 1551 1549 1548 1548 1548 1548 1547 1546 1546 1546 1546 1544 1543 1543 1542 1540 1537 1536 1534 1532 1530 1527 1525 1524 1522 1520 1517 1513 1510 1508 1504
1541 1543 1545 1546 1548 1549 1550 1550 1550 1550 1550 1550 1549 1548 1549 1549 1548 1547 1547 1546 1547 1546 1545 1544 1543 1542 1541 1539 1537 1535 1533 1531 1529 1528 1526 1525 1523 1520 1518 1515 1511 1508 1505
1540 1541 1543 1545 1547 1547 1548 1548 1548 1549 1549 1549 1549 1549 1548 1548 1548 1548 1548 1548 1547 1547 1545 1544 1543 1542 1540 1538 1536 1534 1531 1530 1529 1527 1526 1525 1523 1520 1517 1514 1512 1508 1505
1539 1541 1542 1544 1545 1545 1546 1546 1547 1548 1549 1549 1549 1548 1548 1548 1548 1548 1548 1547 1547 1546 1545 1544 1542 1541 1538 1537 1535 1532 1530 1529 1528 1527 1526 1525 1523 1520 1517 1514 1511 1508 1505
1538 1539 1540 1542 1543 1543 1544 1545 1546 1546 1547 1548 1548 1548 1548 1548 1548 1548 1547 1547 1547 1546 1545 1544 1542 1540 1538 1536 1534 1532 1530 1529 1529 1527 1526 1524 1522 1520 1518 1515 1512 1509 1506
1537 1538 1539 1540 1541 1541 1542 1544 1544 1545 1546 1546 1547 1547 1547 1547 1547 1547 1547 1546 1546 1545 1544 1543 1542 1540 1538 1536 1534 1532 1530 1530 1529 1527 1526 1524 1522 1519 1517 1514 1512 1508 1506
1534 1536 1537 1539 1540 1540 1540 1541 1543 1543 1544 1545 1545 1545 1545 1545 1546 1546 1545 1545 1544 1544 1543 1542 1541 1539 1538 1536 1534 1532 1531 1530 1529 1528 1526 1524 1522 1519 1516 1514 1512 1508 1506